User: anonymous   Login
Location: B�di�
(14.6834°N, 3.1047°W)
Time: 22:24:24
(UTC+00:00)
Language:

Cosmos 1076 Rocket - Orbit

View from above orbital plane
View from above orbital plane
View from above satellite
View from above satellite

Ground track
Ground track

The orbit data is extracted from the following two-line orbital elements,

1 11267U 79011B   20092.80134401  .00000080  00000-0  57947-5 0  9994
2 11267  82.5273 346.7682 0018432  79.6480 280.6815 14.88964101227197
Epoch (UTC): 01 April 2020 19:13:56
Eccentricity: 0.0018432
inclination: 82.5273°
perigee height: 588 km
apogee height: 614 km
right ascension of ascending node: 346.7682°
argument of perigee: 79.6480°
revolutions per day: 14.88964101
mean anomaly at epoch: 280.6815°
orbit number at epoch: 22719

The dashed part of the orbit path shows where the satellite is in the earth's shadow,  

DLR